This is the latest recevied weather packets stored in our database for station/object WV5G-13. If no packets are shown the sender has not sent any weather packets the latest 10 day(s).
| Time | Temp. | Humidity | Pressure | Rain* | Wind** | Luminosity | Snow |
|---|---|---|---|---|---|---|---|
| 1777623293 | 11.67° C | 44% | 1015.7 hPa | 0 mm | - | 0 W/m² | - |
| 1777622989 | 11.67° C | 44% | 1015.8 hPa | 0 mm | - | 0 W/m² | - |
| 1777622686 | 11.67° C | 44% | 1015.8 hPa | 0 mm | - | 0 W/m² | - |
| 1777622382 | 11.67° C | 44% | 1015.9 hPa | 0 mm | - | 0 W/m² | - |
| 1777622079 | 12.22° C | 44% | 1015.7 hPa | 0 mm | - | 0 W/m² | - |
| 1777621774 | 12.22° C | 45% | 1015.8 hPa | 0 mm | - | 0 W/m² | - |
| 1777621472 | 12.22° C | 46% | 1015.9 hPa | 0 mm | - | 0 W/m² | - |
| 1777621167 | 12.22° C | 47% | 1015.8 hPa | 0 mm | - | 0 W/m² | - |
| 1777620863 | 12.22° C | 48% | 1015.8 hPa | 0 mm | - | 0 W/m² | - |
| 1777620560 | 12.22° C | 51% | 1015.9 hPa | 0 mm | - | 0 W/m² | - |
| 1777620257 | 12.22° C | 51% | 1015.9 hPa | 0 mm | - | 0 W/m² | - |
| 1777619953 | 12.22° C | 52% | 1015.8 hPa | 0 mm | - | 0 W/m² | - |
| 1777619649 | 12.22° C | 54% | 1016 hPa | 0 mm | - | 0 W/m² | - |
| 1777619344 | 12.22° C | 55% | 1015.9 hPa | 0 mm | - | 0 W/m² | - |
| 1777619044 | 12.22° C | 59% | 1016.1 hPa | 0 mm | - | 0 W/m² | - |
| 1777618739 | 12.22° C | 62% | 1015.8 hPa | 0 mm | - | 0 W/m² | - |
| 1777618434 | 12.22° C | 63% | 1015.8 hPa | 0 mm | - | 0 W/m² | - |
| 1777618131 | 12.22° C | 63% | 1015.8 hPa | 0 mm | - | 0 W/m² | - |
| 1777617828 | 12.22° C | 64% | 1015.6 hPa | 0 mm | - | 0 W/m² | - |
| 1777617527 | 12.22° C | 65% | 1015.7 hPa | 0 mm | - | 0 W/m² | - |
| 1777617224 | 12.22° C | 65% | 1015.6 hPa | 0 mm | - | 0 W/m² | - |
| 1777616922 | 12.22° C | 66% | 1015.7 hPa | 0 mm | - | 0 W/m² | - |
| 1777616617 | 11.67° C | 67% | 1015.7 hPa | 0 mm | - | 0 W/m² | - |
| 1777616313 | 11.67° C | 68% | 1015.7 hPa | 0 mm | - | 0 W/m² | - |
| 1777616009 | 12.22° C | 67% | 1016 hPa | 0 mm | - | 0 W/m² | - |
* Rain latest hour (hover to see other rain measurements)
** Current wind speed in m/s (hover to see current wind gust speed)